This is the latest recevied weather packets stored in our database for station/object K1RFS. If no packets are shown the sender has not sent any weather packets the latest 10 day(s).
| Time | Temp. | Humidity | Pressure | Rain* | Wind** | Luminosity | Snow |
|---|---|---|---|---|---|---|---|
| 1777836921 | 25.56° C | 17% | 999.7 hPa | 0 mm | - | 449 W/m² | - |
| 1777836616 | 25.56° C | 18% | 999.6 hPa | 0 mm | - | 432 W/m² | - |
| 1777836312 | 25.56° C | 18% | 999.6 hPa | 0 mm | - | 743 W/m² | - |
| 1777836008 | 25.56° C | 18% | 999.6 hPa | 0 mm | - | 688 W/m² | - |
| 1777835705 | 24.44° C | 17% | 999.9 hPa | 0 mm | - | 592 W/m² | - |
| 1777835402 | 23.89° C | 18% | 999.7 hPa | 0 mm | - | 460 W/m² | - |
| 1777835099 | 23.89° C | 19% | 1000.2 hPa | 0 mm | - | 462 W/m² | - |
| 1777834796 | 24.44° C | 19% | 1000 hPa | 0 mm | - | 276 W/m² | - |
| 1777834492 | 23.89° C | 20% | 1000.1 hPa | 0 mm | - | 450 W/m² | - |
| 1777834192 | 24.44° C | 17% | 1000.2 hPa | 0 mm | - | 561 W/m² | - |
| 1777833888 | 23.33° C | 20% | 1000.5 hPa | 0 mm | - | 642 W/m² | - |
| 1777833585 | 23.33° C | 19% | 1000.5 hPa | 0 mm | - | 303 W/m² | - |
| 1777833282 | 23.89° C | 19% | 1000.6 hPa | 0 mm | - | 297 W/m² | - |
| 1777832978 | 23.89° C | 19% | 1000.6 hPa | 0 mm | - | 701 W/m² | - |
| 1777832677 | 23.33° C | 19% | 1000.5 hPa | 0 mm | - | 630 W/m² | - |
| 1777832375 | 23.33° C | 19% | 1000.6 hPa | 0 mm | - | 499 W/m² | - |
| 1777832072 | 23.33° C | 19% | 1000.7 hPa | 0 mm | - | 574 W/m² | - |
| 1777831767 | 23.33° C | 20% | 1000.8 hPa | 0 mm | - | 596 W/m² | - |
| 1777831466 | 22.78° C | 19% | 1000.8 hPa | 0 mm | - | 549 W/m² | - |
| 1777831162 | 22.78° C | 20% | 1000.7 hPa | 0 mm | - | 608 W/m² | - |
| 1777830861 | 22.22° C | 20% | 1000.8 hPa | 0 mm | - | 632 W/m² | - |
| 1777830556 | 22.22° C | 20% | 1000.8 hPa | 0 mm | - | 560 W/m² | - |
| 1777830254 | 22.22° C | 20% | 1000.8 hPa | 0 mm | - | 362 W/m² | - |
| 1777829948 | 22.22° C | 17% | 1001 hPa | 0 mm | - | 321 W/m² | - |
| 1777829645 | 22.22° C | 18% | 1001 hPa | 0 mm | - | 109 W/m² | - |
* Rain latest hour (hover to see other rain measurements)
** Current wind speed in m/s (hover to see current wind gust speed)